AFL104 URWW-UWKD

Flight info

Callsign AFL104
Flight time N/A
Altitude 37000
Route RODUN1E RODUN R807 UROBO P135 DAFOS T789 SONUM SONUM1T
Aircraft A339/H-ICAO/C

Departure

Time 2026-05-07 16:23
Airport Volgograd International Airport (URWW)

Arrival

Time N/A
Airport Kazan International Airport (UWKD)
Time Latitude Longitude Altitude Speed Heading
2026-05-07 15:47 48.79054 44.35449 414 ft 0 kts 338°
2026-05-07 16:15 48.79040 44.35457 414 ft 6 kts 335°
2026-05-07 16:15 48.79013 44.35508 416 ft 1 kts 253°
2026-05-07 16:15 48.79013 44.35509 416 ft 0 kts 253°
2026-05-07 16:19 48.79011 44.35495 414 ft 6 kts 255°
2026-05-07 16:19 48.79010 44.35488 414 ft 0 kts 255°
2026-05-07 16:19 48.79008 44.35477 414 ft 5 kts 255°
2026-05-07 16:19 48.78969 44.35326 420 ft 25 kts 246°
2026-05-07 16:20 48.78892 44.35119 419 ft 15 kts 200°
2026-05-07 16:20 48.78800 44.35150 422 ft 15 kts 165°
2026-05-07 16:20 48.78705 44.35194 414 ft 0 kts 160°
2026-05-07 16:21 48.78679 44.35209 413 ft 9 kts 160°
2026-05-07 16:21 48.78576 44.35214 418 ft 20 kts 200°
2026-05-07 16:22 48.78523 44.35122 415 ft 0 kts 243°
2026-05-07 16:23 48.78492 44.35028 422 ft 44 kts 244°
2026-05-07 16:23 48.78216 44.34154 437 ft 135 kts 244°
2026-05-07 16:23 48.77714 44.32583 692 ft 180 kts 244°
2026-05-07 16:23 48.77170 44.30862 1704 ft 183 kts 246°
2026-05-07 16:24 48.76601 44.29070 2489 ft 198 kts 246°
2026-05-07 16:24 48.75954 44.27042 2903 ft 229 kts 246°
2026-05-07 16:24 48.75226 44.24756 3305 ft 253 kts 246°
2026-05-07 16:24 48.74468 44.22271 3672 ft 263 kts 252°
2026-05-07 16:25 48.74248 44.19544 4053 ft 261 kts 278°
2026-05-07 16:25 48.74832 44.16979 4433 ft 258 kts 304°
2026-05-07 16:25 48.76078 44.15118 4818 ft 257 kts 329°
2026-05-07 16:25 48.77769 44.14297 5183 ft 258 kts 355°
2026-05-07 16:26 48.79529 44.14741 5571 ft 260 kts 21°
2026-05-07 16:26 48.81035 44.16283 5952 ft 264 kts 37°
2026-05-07 16:26 48.82456 44.18032 6327 ft 264 kts 36°
2026-05-07 16:26 48.83419 44.19170 6570 ft 264 kts 35°
2026-05-07 16:27 48.85392 44.21413 7097 ft 267 kts 34°
2026-05-07 16:27 48.86889 44.23074 7943 ft 265 kts 34°
2026-05-07 16:27 48.88383 44.24732 8737 ft 267 kts 36°
2026-05-07 16:27 48.89846 44.26429 9497 ft 269 kts 37°
2026-05-07 16:28 48.91335 44.28180 10218 ft 273 kts 37°
2026-05-07 16:28 48.92900 44.29980 10479 ft 293 kts 36°
2026-05-07 16:28 48.94600 44.31887 10670 ft 313 kts 36°
2026-05-07 16:28 48.96392 44.33875 11129 ft 322 kts 36°
2026-05-07 16:29 48.98211 44.35887 11812 ft 324 kts 36°
2026-05-07 16:29 49.00046 44.37916 12448 ft 328 kts 36°
2026-05-07 16:29 49.01901 44.39968 13079 ft 331 kts 36°
2026-05-07 16:29 49.03775 44.42044 13725 ft 335 kts 36°
2026-05-07 16:30 49.05642 44.44119 14323 ft 337 kts 36°
2026-05-07 16:30 49.07539 44.46232 14923 ft 339 kts 36°
2026-05-07 16:30 49.09455 44.48371 15489 ft 342 kts 36°
2026-05-07 16:30 49.11380 44.50526 16094 ft 345 kts 36°
2026-05-07 16:31 49.13325 44.52705 16650 ft 348 kts 36°
2026-05-07 16:31 49.15277 44.54895 16891 ft 349 kts 36°
2026-05-07 16:31 49.16574 44.56354 16945 ft 350 kts 36°
2026-05-07 16:31 49.18533 44.58557 16966 ft 350 kts 36°
2026-05-07 16:32 49.21153 44.61508 16960 ft 350 kts 36°
2026-05-07 16:32 49.23087 44.63690 16958 ft 350 kts 36°
2026-05-07 16:32 49.25043 44.65900 16970 ft 351 kts 36°
2026-05-07 16:32 49.27017 44.68132 17339 ft 354 kts 36°
2026-05-07 16:33 49.28349 44.69640 17832 ft 353 kts 36°
2026-05-07 16:33 49.30307 44.71859 18390 ft 356 kts 37°
2026-05-07 16:33 49.32304 44.74125 18900 ft 359 kts 37°
2026-05-07 16:33 49.34318 44.76412 19416 ft 361 kts 37°
2026-05-07 16:34 49.36346 44.78719 19931 ft 364 kts 37°
2026-05-07 16:34 49.38385 44.81041 20451 ft 367 kts 37°
2026-05-07 16:34 49.40446 44.83393 20971 ft 370 kts 37°
2026-05-07 16:34 49.42519 44.85759 21497 ft 373 kts 37°
2026-05-07 16:35 49.44606 44.88145 22018 ft 376 kts 37°
2026-05-07 16:35 49.46717 44.90561 22528 ft 379 kts 37°
2026-05-07 16:35 49.48834 44.92987 23075 ft 382 kts 37°
2026-05-07 16:35 49.50970 44.95437 23613 ft 385 kts 37°
2026-05-07 16:36 49.53124 44.97911 24035 ft 389 kts 37°
2026-05-07 16:36 49.55271 45.00380 24432 ft 393 kts 37°
2026-05-07 16:36 49.57464 45.02906 24868 ft 396 kts 37°
2026-05-07 16:36 49.59680 45.05460 25292 ft 399 kts 37°
2026-05-07 16:37 49.61911 45.08036 25717 ft 402 kts 37°
2026-05-07 16:37 49.64165 45.10625 26148 ft 405 kts 36°
2026-05-07 16:37 49.66573 45.12921 26546 ft 409 kts 28°
2026-05-07 16:37 49.69180 45.14747 26955 ft 413 kts 22°
2026-05-07 16:38 49.71932 45.16092 27368 ft 417 kts 16°
2026-05-07 16:38 49.74743 45.17285 27760 ft 420 kts 17°
2026-05-07 16:38 49.77567 45.18516 28164 ft 423 kts 17°
2026-05-07 16:38 49.80404 45.19764 28550 ft 426 kts 17°
2026-05-07 16:39 49.83229 45.21010 28942 ft 429 kts 17°
2026-05-07 16:39 49.86093 45.22271 29488 ft 428 kts 17°
2026-05-07 16:39 49.88955 45.23531 30053 ft 427 kts 17°
2026-05-07 16:39 49.91808 45.24789 30530 ft 426 kts 17°
2026-05-07 16:40 49.94660 45.26046 30888 ft 429 kts 17°
2026-05-07 16:40 49.97558 45.27326 30997 ft 438 kts 17°
2026-05-07 16:40 50.00521 45.28636 31132 ft 446 kts 16°
2026-05-07 16:40 50.03539 45.29809 31452 ft 449 kts 12°
2026-05-07 16:41 50.06597 45.30825 31777 ft 451 kts 13°
2026-05-07 16:41 50.09638 45.31852 32087 ft 454 kts 13°
2026-05-07 16:41 50.12737 45.32905 32393 ft 457 kts 13°
2026-05-07 16:41 50.15850 45.33966 32650 ft 460 kts 13°
2026-05-07 16:42 50.18982 45.35035 32895 ft 462 kts 13°
2026-05-07 16:42 50.22125 45.36108 33103 ft 464 kts 13°
2026-05-07 16:42 50.25288 45.37189 33292 ft 466 kts 13°
2026-05-07 16:42 50.28464 45.38275 33469 ft 467 kts 13°
2026-05-07 16:43 50.31639 45.39363 33691 ft 468 kts 13°
2026-05-07 16:43 50.34821 45.40454 33895 ft 469 kts 13°
2026-05-07 16:43 50.38007 45.41549 34087 ft 469 kts 13°
2026-05-07 16:43 50.41191 45.42644 34294 ft 469 kts 13°
2026-05-07 16:44 50.44374 45.43740 34478 ft 469 kts 13°
2026-05-07 16:44 50.47563 45.44840 34671 ft 469 kts 13°
2026-05-07 16:44 50.50710 45.45926 34870 ft 469 kts 13°
2026-05-07 16:45 50.57083 45.48133 35010 ft 470 kts 13°
2026-05-07 16:45 50.60271 45.49238 35209 ft 469 kts 13°
2026-05-07 16:45 50.63462 45.50347 35447 ft 468 kts 13°
2026-05-07 16:45 50.66633 45.51449 35790 ft 465 kts 13°
2026-05-07 16:46 50.69780 45.52545 36232 ft 461 kts 13°
2026-05-07 16:46 50.72890 45.53629 36764 ft 456 kts 13°
2026-05-07 16:46 50.75998 45.54715 36919 ft 460 kts 13°
2026-05-07 16:47 50.82316 45.56940 36937 ft 469 kts 13°
2026-05-07 16:47 50.88669 45.59225 36944 ft 468 kts 13°
2026-05-07 16:48 50.94976 45.61498 36936 ft 468 kts 13°
2026-05-07 16:48 51.01310 45.63869 36936 ft 467 kts 17°
2026-05-07 16:49 51.07362 45.67617 36934 ft 467 kts 26°
2026-05-07 16:49 51.13236 45.72035 36937 ft 467 kts 25°
2026-05-07 16:50 51.19119 45.76416 36935 ft 467 kts 25°
2026-05-07 16:50 51.24964 45.80806 36932 ft 467 kts 25°
2026-05-07 16:51 51.30839 45.85243 36929 ft 467 kts 25°
2026-05-07 16:51 51.36708 45.89687 36931 ft 467 kts 25°
2026-05-07 16:52 51.42538 45.94115 36926 ft 467 kts 25°
2026-05-07 16:52 51.48403 45.98583 36928 ft 467 kts 25°
2026-05-07 16:53 51.54269 46.03063 36936 ft 467 kts 25°
2026-05-07 16:53 51.60104 46.07641 36934 ft 467 kts 27°
2026-05-07 16:54 51.65872 46.12447 36936 ft 467 kts 27°
2026-05-07 16:54 51.71612 46.17219 36939 ft 467 kts 27°
2026-05-07 16:55 51.77389 46.22004 36934 ft 467 kts 27°
2026-05-07 16:55 51.83177 46.26807 36936 ft 468 kts 27°
2026-05-07 16:56 51.88964 46.31622 36934 ft 468 kts 27°
2026-05-07 16:56 51.97611 46.38843 36925 ft 468 kts 27°
2026-05-07 16:57 52.03398 46.43694 36933 ft 468 kts 27°
2026-05-07 16:57 52.09186 46.48561 36939 ft 469 kts 27°
2026-05-07 16:58 52.14975 46.53443 36934 ft 469 kts 27°
2026-05-07 16:58 52.20722 46.58304 36940 ft 469 kts 27°
2026-05-07 16:59 52.26509 46.63215 36935 ft 469 kts 27°
2026-05-07 16:59 52.32290 46.68136 36937 ft 469 kts 27°
2026-05-07 17:00 52.38075 46.73075 36942 ft 469 kts 27°
2026-05-07 17:00 52.43816 46.77990 36944 ft 469 kts 27°
2026-05-07 17:01 52.49592 46.82951 36945 ft 469 kts 27°
2026-05-07 17:01 52.55371 46.87928 36943 ft 469 kts 27°
2026-05-07 17:02 52.61140 46.92910 36946 ft 469 kts 27°
2026-05-07 17:02 52.66907 46.97905 36951 ft 469 kts 27°
2026-05-07 17:03 52.72641 47.02887 36941 ft 469 kts 27°
2026-05-07 17:03 52.78406 47.07911 36948 ft 469 kts 27°
2026-05-07 17:04 52.84170 47.12950 36946 ft 469 kts 27°
2026-05-07 17:04 52.89938 47.18010 36949 ft 469 kts 27°
2026-05-07 17:05 52.95664 47.23048 36949 ft 469 kts 27°
2026-05-07 17:05 53.01432 47.28139 36949 ft 469 kts 27°
2026-05-07 17:06 53.07195 47.33241 36948 ft 469 kts 27°
2026-05-07 17:06 53.12959 47.38359 36953 ft 470 kts 27°
2026-05-07 17:07 53.18682 47.43457 36954 ft 470 kts 27°
2026-05-07 17:07 53.24439 47.48598 36953 ft 470 kts 28°
2026-05-07 17:08 53.30211 47.53769 36954 ft 470 kts 28°
2026-05-07 17:08 53.35981 47.58954 36955 ft 471 kts 28°
2026-05-07 17:09 53.41707 47.64115 36959 ft 471 kts 28°
2026-05-07 17:09 53.47486 47.69279 36959 ft 471 kts 25°
2026-05-07 17:10 53.53540 47.73453 36958 ft 470 kts 21°
2026-05-07 17:10 53.59613 47.77523 36959 ft 470 kts 21°
2026-05-07 17:11 53.62927 47.79732 36964 ft 0 kts 21°
2026-05-07 17:11 53.60157 47.91667 36952 ft 0 kts 21°
2026-05-07 17:11 53.60144 47.91655 36940 ft 0 kts 213°
2026-05-07 17:12 53.65255 47.78715 36954 ft 0 kts 33°
2026-05-07 17:12 53.68315 47.75817 37944 ft 444 kts 31°
2026-05-07 17:12 53.70762 47.78815 39041 ft 427 kts 39°
2026-05-07 17:12 53.73005 47.82014 39254 ft 429 kts 35°
2026-05-07 17:13 53.75465 47.84788 38951 ft 443 kts 26°
2026-05-07 17:13 53.78274 47.86976 38612 ft 458 kts 18°
2026-05-07 17:13 53.81344 47.88707 38187 ft 471 kts 16°
2026-05-07 17:13 53.84439 47.90583 37759 ft 473 kts 20°
2026-05-07 17:14 53.87446 47.92831 37352 ft 471 kts 22°
2026-05-07 17:14 53.90370 47.95044 36976 ft 469 kts 22°
2026-05-07 17:14 53.96346 47.99541 36969 ft 471 kts 22°
2026-05-07 17:15 54.02335 48.04081 36972 ft 471 kts 22°
2026-05-07 17:15 54.08272 48.08611 36970 ft 471 kts 22°
2026-05-07 17:16 54.14230 48.13166 36613 ft 467 kts 22°
2026-05-07 17:16 54.17186 48.15427 36053 ft 464 kts 22°
2026-05-07 17:16 54.20131 48.17683 35381 ft 463 kts 22°
2026-05-07 17:17 54.23063 48.19932 34667 ft 461 kts 23°
2026-05-07 17:17 54.25980 48.22188 33901 ft 459 kts 24°
2026-05-07 17:17 54.28794 48.24792 32938 ft 460 kts 28°
2026-05-07 17:17 54.31580 48.27494 31891 ft 462 kts 28°
2026-05-07 17:18 54.34364 48.30166 30896 ft 464 kts 28°
2026-05-07 17:18 54.37169 48.32855 30207 ft 460 kts 28°
2026-05-07 17:18 54.39948 48.35524 29495 ft 455 kts 28°
2026-05-07 17:18 54.42695 48.38169 28770 ft 450 kts 28°
2026-05-07 17:19 54.45405 48.40784 28061 ft 446 kts 28°
2026-05-07 17:19 54.48099 48.43390 27362 ft 441 kts 28°
2026-05-07 17:19 54.50759 48.45966 26666 ft 437 kts 28°
2026-05-07 17:19 54.53395 48.48525 25974 ft 433 kts 28°
2026-05-07 17:20 54.56009 48.51065 25316 ft 429 kts 28°
2026-05-07 17:20 54.58595 48.53581 24642 ft 425 kts 28°
2026-05-07 17:20 54.61024 48.55948 24021 ft 422 kts 28°